SAUDICOMSAT 2 (28370 NORAD) Tracking and Keplerian Element Data

This shows tracking and keplerian element data for the satellite.

Feedback or suggestion? Click here.




ElementValue
Catalog28370
NameSAUDICOMSAT 2
Epoch Orbit8791
Epoch Day34.94979345
Epoch Year2025
RAAN28.4363
Inclination98.6527
Eccentricity0.0055378
Argument of Perigee329.4253
Mean Anonmoly30.3715
Mean Motion14.49380339
Decay Rate1.12E-05
L11 28370U 04025E 25034.94979345 .00001120 00000+0 30010-3 0 9995
L22 28370 98.6527 28.4363 0055378 329.4253 30.3715 14.49380339 87919



Live tracking and technical data element details for SAUDICOMSAT 2 (NORAD 28370). SAUDICOMSAT 2 can be tracked NOW for your location showing map with azimuth and elevation plus other details from your city location.







IsCatalogInMostPopularTable: catalog: 28370, numindb: 311
Update: records affected: 1



GetName: 28370 SAUDICOMSAT 2

Hit Count: updated at: Thu, 22 May 2025 03:15:04 GMT